www.pogodaiklimat.ru
ПОГОДА в Клодзко

Архив погоды в Клодзко (Польша)

Время
(UTC), дата
16 21.05
17 21.05
18 21.05
19 21.05
20 21.05
21 21.05
22 21.05
23 21.05
00 22.05
01 22.05
02 22.05
03 22.05
04 22.05
05 22.05
06 22.05
07 22.05
08 22.05
09 22.05
10 22.05
11 22.05
12 22.05
13 22.05
14 22.05
15 22.05
16 22.05
17 22.05
18 22.05
19 22.05
20 22.05
21 22.05
22 22.05
23 22.05
00 23.05
01 23.05
02 23.05
03 23.05
04 23.05
05 23.05
06 23.05
07 23.05
08 23.05
09 23.05
10 23.05
11 23.05
12 23.05
13 23.05
14 23.05
15 23.05
16 23.05
17 23.05
18 23.05
19 23.05
20 23.05
21 23.05
22 23.05
23 23.05
00 24.05
01 24.05
02 24.05
03 24.05
04 24.05
05 24.05
06 24.05
07 24.05
08 24.05
09 24.05
10 24.05
11 24.05
12 24.05
13 24.05
14 24.05
15 24.05
16 24.05
17 24.05
18 24.05
19 24.05
20 24.05
21 24.05
22 24.05
23 24.05
00 25.05
01 25.05
02 25.05
03 25.05
04 25.05
05 25.05
06 25.05
07 25.05
08 25.05
09 25.05
10 25.05
11 25.05
12 25.05
13 25.05
14 25.05
15 25.05
16 25.05
17 25.05
18 25.05
19 25.05
20 25.05
21 25.05
22 25.05
23 25.05
00 26.05
01 26.05
02 26.05
03 26.05
04 26.05
05 26.05
06 26.05
07 26.05
08 26.05
09 26.05
10 26.05
11 26.05
12 26.05
13 26.05
14 26.05
15 26.05
16 26.05
17 26.05
18 26.05
19 26.05
20 26.05
21 26.05
22 26.05
23 26.05
00 27.05
01 27.05
02 27.05
03 27.05
04 27.05
05 27.05
06 27.05
07 27.05
08 27.05
09 27.05
10 27.05
11 27.05
12 27.05
13 27.05
14 27.05
15 27.05
16 27.05
17 27.05
18 27.05
19 27.05
20 27.05
21 27.05
22 27.05
23 27.05
00 28.05
01 28.05
02 28.05
03 28.05
04 28.05
05 28.05
06 28.05
07 28.05
08 28.05
09 28.05
10 28.05
11 28.05
12 28.05
13 28.05
14 28.05
15 28.05
16 28.05
17 28.05
Ветер
(напр.,м/с)
Видим. Явления Облачность Т
(С)
Тd
(С)
f
(%)
Тe
(С)
Тes
(С)
Комфортность P
(гПа)
Po
(гПа)
Тmin
(С)
Tmax
(С)
R
(мм)
R24
(мм)
S
(см)
С 1 45 км в посл. час ливневой дождь 9/4 1000 м
[Cb cap Ac As]
+19.8 +16.2 80 +23 +24 комфорт 1009.2 968.0
СЗ 1 35 км в посл. час ливневой дождь 9/4 1000 м
[Cb cap Ac As]
+18.7 +15.6 82 +21 +21 комфорт 1008.8 967.5
С 1 40 км {ливн. дождь} 8/4 1500 м
[Sc Ac As]
+18.5 +15.4 82 +20 +20 1008.7 967.3 +12.6 +22.9 0.4
СВ 2 35 км 8/1 1000 м
[Sc Ac As]
+17.4 +14.9 85 +18 +18 1008.7 967.2
З 1 35 км 6/0
[Ac trans]
+16.4 +14.8 90 +17 +17 1008.8 967.1
СВ 1 25 км н/о +16.7 +14.2 85 +18 +18 1008.3 966.7
СЗ 1 20 км н/о +15.4 +13.4 88 +16 +16 1008.0 966.2
З 1 12 км н/о +13.9 +13.4 97 +14 +14 1008.3 966.3
ЮВ 2 11 км н/о +13.6 +13.1 97 +13 +13 1007.8 965.8
ЮЗ 2 8000 м дымка н/о +13.1 +12.9 99 +12 +12 1007.8 965.7
Ю 1 14 км н/о +13.3 +13.1 99 +13 +13 1007.9 965.8
Ю 2 30 км н/о +14.4 +13.6 95 +14 +14 1007.8 965.9
Ю 3 45 км н/о +14.9 +13.8 93 +14 +14 1007.4 965.6
Ю 3 50 км в посл. час ливневой дождь 9/8 800 м
[Cb cap Ac lent Ci fib]
+15.4 +13.6 89 +15 +15 1007.8 966.0
Ю 4 {10} 50 км слаб. ливневой дождь 9/9 630 м
[Cb cap]
+15.9 +13.6 86 +15 +15 1008.1 966.4 +12.0 +18.5 0.1 0.5
Ю 5 50 км слаб. ливневой дождь 9/9 700 м
[Cb cap]
+16.2 +13.9 86 +15 +16 1008.5 966.8
Ю 4 50 км в посл. час ливневой дождь 9/8 570 м
[Cb calv Ac cuf Ci ing]
+16.5 +13.6 83 +16 +17 1009.1 967.4
Ю 4 50 км в посл. час ливневой дождь 9/9 720 м
[Cu med, cong]
+18.3 +12.9 71 +19 +20 1009.0 967.6
Ю 3 50 км 9/8 720 м
[Cu med, cong Ac trans Ci sp]
+17.8 +13.3 75 +18 +20 1009.2 967.7
ЮЗ 5 50 км 9/8 800 м
[Cu med, cong Ac trans Ci sp]
+18.0 +13.3 74 +18 +19 1009.5 968.0
З 5 50 км {ливн. дождь} 9/8 720 м
[Cb calv Ac lent]
+18.5 +13.1 71 +19 +20 1009.5 968.1 0.0
ЮЗ 4 50 км 9/9 840 м
[Cu med, cong]
+18.2 +11.3 64 +18 +19 1009.5 968.1
ЮЗ 4 50 км 9/9 930 м
[Cu Sc]
+17.7 +11.5 67 +17 +18 1009.7 968.2
З 6 50 км 6/5 840 м
[Cu med, cong Ac cast Ci sp]
+18.5 +11.6 64 +18 +20 1009.4 968.0
З 5 50 км 8/4 870 м
[Cu med, cong Ac trans Cs]
+17.8 +11.8 68 +17 +18 1009.6 968.1
З 3 50 км 8/5 800 м
[Cu med, cong Ac trans Cs]
+17.0 +11.0 68 +17 +17 1010.2 968.6
З 4 50 км 9/5 750 м
[Cu med, cong Ac trans Cs]
+15.9 +11.5 75 +15 +15 1010.6 968.8 +15.9 +18.9 0.0
З 4 50 км 9/9 630 м
[Cu Sc]
+15.5 +12.1 80 +15 +15 1011.3 969.4
З 3 50 км 9/8 930 м
[Cu Sc Ac trans]
+14.9 +12.0 83 +14 +14 1011.9 969.9
З 4 50 км н/о +14.8 +11.8 82 +14 +14 1012.2 970.2
З 2 50 км н/о +14.3 +11.4 83 +14 +14 1012.4 970.3
З 3 50 км н/о +14.1 +11.6 85 +13 +13 1012.3 970.2
З 3 50 км н/о +14.0 +11.3 84 +13 +13 1012.8 970.6
З 1 50 км н/о +13.6 +11.1 85 +14 +14 1013.4 971.1
штиль 0 50 км н/о +13.1 +10.8 86 +13 +13 1013.5 971.2
Ю 1 50 км н/о +12.3 +10.9 91 +12 +12 1014.1 971.6
ЮЗ 1 50 км н/о +12.7 +10.9 89 +13 +13 1014.4 972.0
Ю 2 45 км 6/1 600 м
[Sc Ac trans Cs]
+15.0 +12.3 84 +15 +16 1014.5 972.4
СЗ 1 45 км 9/1 600 м
[Sc Ac trans]
+15.9 +12.1 78 +17 +19 1014.7 972.7 +12.1 +16.3 0.0
З 2 35 км 9/5 630 м
[Cu Sc Ac trans]
+16.3 +12.1 76 +16 +18 1015.1 973.2
З 3 30 км 9/5 1200 м
[Cb calv Ac trans]
+16.9 +11.8 72 +17 +19 1015.1 973.2
ЮЗ 2 40 км 9/4 1300 м
[Cb calv Ac trans Cs]
+18.0 +11.5 66 +19 +24 1015.2 973.5
З 4 40 км 9/6 1230 м
[Cb cap Ac trans Cs]
+18.4 +11.2 63 +19 +21 1015.2 973.6
ЮВ 3 40 км 9/4 1230 м
[Cb calv Ac trans]
+18.8 +11.8 64 +20 +24 1015.2 973.6
ЮВ 1 30 км 9/4 1000 м
[Cb cap Ac trans]
+19.8 +11.3 58 +22 +28 комфорт 1015.1 973.7
Ю 1 40 км 9/5 1500 м
[Cu med, cong Ac trans]
+19.3 +10.6 57 +21 +26 комфорт 1015.0 973.5
СВ 3 50 км 9/9 1500 м
[Cb calv]
+18.0 +10.8 63 +18 +19 1015.4 973.7
СВ 2 35 км слаб. ливневой дождь 9/9 1500 м
[Cb cap]
+17.8 +11.8 68 +18 +19 1016.0 974.2
С 2 30 км в посл. час ливневой дождь 9/9 1500 м
[Cb calv]
+17.7 +12.2 70 +18 +19 1016.1 974.3
СЗ 1 30 км слаб. ливневой дождь 9/6 1110 м
[Cb cap Ac trans]
+17.4 +11.2 67 +18 +19 1016.1 974.3
ЮЗ 1 30 км в посл. час ливневой дождь 9/1 1000 м
[Cb calv Ac trans Cs]
+16.6 +12.9 79 +17 +18 1016.6 974.6 +15.7 +20.0 0.0
С 1 35 км 9/1 1000 м
[Sc Ac trans Cs]
+15.0 +12.9 87 +15 +15 1017.3 975.1
С 1 15 км 9/0
[Ac trans Cs]
+13.5 +12.2 92 +14 +14 1018.1 975.6
С 1 9000 м н/о +13.3 +12.7 96 +13 +13 1018.2 975.7
СЗ 1 15 км н/о +13.0 +12.2 95 +13 +13 1018.5 975.9
штиль 0 7000 м дымка н/о +12.2 +11.6 96 +12 +12 1018.6 975.9
СЗ 1 9000 м дымка н/о +11.7 +11.2 97 +11 +11 1018.9 976.1
Ю 1 4700 м дымка н/о +11.3 +11.0 98 +11 +11 1019.1 976.3
С 1 8000 м дымка н/о +11.8 +11.6 99 +12 +12 1019.1 976.3
ЮВ 1 5000 м дымка н/о +10.9 +10.7 99 +10 +10 1019.4 976.5
СЗ 1 4600 м дымка н/о +11.4 +11.2 99 +11 +11 1019.5 976.7
штиль 0 7000 м дымка 6/1 600 м
[Cb cap Ac trans Ci fib]
+11.5 +11.3 99 +11 +13 1019.4 976.6
С 1 8000 м дымка 9/1 1000 м
[Cb cap Ac und Ci fib]
+14.4 +12.9 91 +15 +17 1019.3 976.9 +10.7 +16.6 0.0
СВ 2 10 км 9/4 1000 м
[Cb cap Ac As]
+15.3 +13.1 87 +15 +17 1019.5 977.2
СВ 2 10 км слаб. ливневой дождь 9/6 1170 м
[Cb cap Ac As]
+15.6 +13.4 87 +15 +18 1019.4 977.2
СВ 2 8000 м в посл. час ливневой дождь туман 10/5 1000 м
[Cb cap Ac As]
+15.5 +14.0 91 +15 +18 1019.4 977.2
С 1 8000 м слаб. ливневой дождь 10/5 930 м
[Cb cap Ac As]
+16.4 +13.7 84 +17 +20 1019.2 977.1
Ю 2 2500 м ливневой дождь 10/9 210 м
[Cb cap]
+14.9 +14.4 97 +15 +15 1019.3 977.0
З 1 7000 м в посл. час ливневой дождь туман 9/9 750 м
[Cb cap]
+15.4 +15.2 99 +16 +18 1018.7 976.5 7
1 8000 м слаб. ливневой дождь 9/8 270 м
[Cb cap Ac cuf]
+16.8 +15.0 89 +18 +20 1018.1 976.1
2 20 км в посл. час ливневой дождь 6/4 450 м
[Cb cap Ac cuf Ci ing]
+18.4 +14.9 80 +19 +25 1017.7 976.0
З 2 30 км {ливн. дождь} 4/4 600 м
[Cb cap Ac cuf Ci ing]
+18.7 +15.0 79 +20 +24 1017.3 975.6
штиль 0 40 км 8/4 600 м
[Cb cap Ac cuf Ci ing]
+19.5 +13.9 70 +21 +23 комфорт 1016.9 975.3
штиль 1 40 км осадки на расстоянии 9/3 600 м
[Cb cap Ac cuf Ci ing]
+19.2 +13.6 70 +22 +22 комфорт 1016.8 975.2
Ю 3 25 км осадки на расстоянии {ливн. дождь} 9/3 600 м
[Cb cap Ac cuf Ci ing]
+17.1 +14.2 83 +17 +17 1017.3 975.4 +14.3 +20.1 7
Ю 3 30 км осадки на расстоянии 8/1 600 м
[Cb cap Ac cuf Ci ing]
+15.5 +13.9 90 +15 +15 1017.4 975.3
Ю 2 50 км 8/1 600 м
[Sc Ac cuf Ci ing]
+15.6 +13.4 87 +15 +15 1018.2 976.0
Ю 3 50 км н/о +14.8 +13.3 91 +14 +14 1018.8 976.5
Ю 3 35 км н/о +13.1 +12.5 96 +12 +12 1019.1 976.5
ЮВ 3 17 км н/о +12.1 +11.8 98 +10 +10 1019.3 976.6
Ю 3 11 км н/о +11.2 +10.9 98 +9 +9 1019.6 976.7
Ю 2 11 км дымка н/о +11.2 +11.0 99 +10 +10 1019.4 976.5
С 1 8000 м дымка н/о +11.6 +11.4 99 +11 +11 1019.3 976.5
ЮВ 1 6000 м в посл. час туман н/о +11.1 +10.9 99 +11 +11 1019.7 976.8
СВ 1 9000 м в посл. час туман н/о +11.1 +10.9 99 +11 +11 1019.8 976.9
ЮВ 1 15 км туман на расстоянии 4/1 600 м
[Cu med, cong Ac trans]
+13.8 +13.6 99 +14 +16 1019.4 976.9
ЮВ 2 35 км 5/3 1000 м
[Cu med, cong Ac trans]
+15.3 +14.0 92 +15 +18 1019.4 977.1 +10.5 +17.1 7.2
Ю 5 45 км 5/4 1000 м
[Cu med, cong Ac cuf Ci fib]
+18.0 +13.7 76 +18 +20 1018.9 977.0
Ю 6 45 км 6/4 1000 м
[Cu med, cong Ci sp]
+19.2 +14.0 72 +20 +23 1018.7 977.0
Ю 5 45 км 6/4 1000 м
[Cu med, cong Cs]
+20.2 +14.3 69 +22 +27 комфорт 1018.6 977.1
Ю 4 40 км 6/5 1000 м
[Cu med, cong Cs]
+21.0 +14.2 65 +24 +29 комфорт 1018.2 976.8
Ю 6 40 км 8/6 1000 м
[Cb cap Ci sp]
+21.1 +13.0 60 +23 +26 комфорт 1018.0 976.6
Ю 7 {12} 45 км 9/3 1000 м
[Cb cap Ac trans Ci sp]
+19.0 +13.4 70 +19 +21 1018.7 977.0
ЮВ 7 25 км 8/3 1000 м
[Cb cap Ac cuf Ci sp]
+20.4 +12.1 59 +22 +24 комфорт 1018.4 976.9
Ю 8 40 км осадки на расстоянии 8/3 1000 м
[Cb cap Ac cuf Ci ing]
+20.2 +12.4 61 +22 +22 комфорт 1018.3 976.8
Ю 4 50 км 6/1 1000 м
[Cu med, cong Ac cuf Ci ing]
+18.8 +11.6 63 +19 +23 1018.1 976.4
Ю 4 50 км 6/1 1000 м
[Cb calv Ac trans Ci ing]
+20.1 +10.2 53 +22 +23 комфорт 1017.3 975.8
Ю 4 50 км 5/1 1000 м
[Cu med, cong Ac trans Ci ing]
+20.0 +9.5 51 +21 +22 комфорт 1017.5 976.0
Ю 2 50 км 6/1 1000 м
[Cu med, cong Ac trans Ci sp]
+17.8 +12.3 70 +18 +19 1018.3 976.4 +15.3 +21.8
ЮВ 2 50 км 6/0
[Ac trans Ci sp]
+16.0 +11.4 74 +16 +16 1018.9 976.8
Ю 2 50 км 8/0
[Ac As]
+14.3 +11.8 85 +14 +14 1019.7 977.3
ЮЗ 2 30 км н/о +14.2 +12.4 89 +14 +14 1019.5 977.1
Ю 1 35 км н/о +13.9 +11.8 87 +14 +14 1019.8 977.3
ЮЗ 1 25 км н/о +12.9 +12.0 94 +13 +13 1020.1 977.5
ЮЗ 1 25 км н/о +12.9 +12.1 95 +13 +13 1019.9 977.3
В 1 16 км н/о +12.2 +11.7 97 +12 +12 1019.9 977.2
С 1 16 км н/о +11.4 +11.1 98 +11 +11 1019.9 977.1
З 1 8000 м дымка н/о +10.4 +10.1 98 +10 +10 1020.2 977.2
ЮЗ 1 {7} 11 км н/о +10.5 +10.3 99 +10 +10 1020.9 977.9
С 1 35 км осадки на расстоянии 6/4 1500 м
[Cb cap Ac trans Cs]
+11.9 +11.7 99 +12 +13 1020.9 978.1
СЗ 1 {7} 35 км слаб. ливневой дождь 9/9 1500 м
[Cb cap]
+13.5 +12.7 95 +14 +14 1020.9 978.3 +10.0 +17.8 0.0 0.0
СЗ 1 30 км в посл. час ливневой дождь 9/3 1500 м
[Cb cap Ac trans Cs]
+15.7 +13.7 88 +16 +20 1020.7 978.4
Ю 1 40 км 9/1 1500 м
[Cu med, cong Ac trans Cs]
+17.8 +12.5 71 +19 +26 1020.3 978.4
ЮЗ 1 40 км {ливн. дождь} 9/3 1500 м
[Cb calv Ac trans Cs]
+20.5 +11.9 58 +24 +30 комфорт 1019.8 978.3
Ю 2 45 км 9/4 1000 м
[Cb cap Ac trans Cs]
+22.4 +11.2 49 +25 +30 комфорт 1019.5 978.2
Ю 3 35 км в посл. час гроза 9/4 1500 м
[Cb cap Ac trans Cs]
+23.3 +10.0 43 +25 +30 комфорт 1019.2 978.1
ЮВ 2 45 км гроза без осадков {ливн. дождь} туман 9/6 1500 м
[Cb cap Cs]
+23.3 +9.7 42 +25 +30 комфорт 1018.9 977.8 0.0
СВ 2 {9} 45 км гроза без осадков 9/9 1500 м
[Cb cap]
+20.2 +12.2 60 +23 +24 комфорт 1020.1 978.5
СЗ 2 40 км гроза без осадков 9/5 1500 м
[Cb cap Ac cuf Cs]
+20.7 +12.7 60 +24 +27 комфорт 1019.5 978.0
СЗ 2 {9} 40 км в посл. час гроза туман 9/4 1500 м
[Cb cap Ac cuf Cs]
+19.8 +12.8 64 +22 +25 комфорт 1019.5 977.9
СЗ 1 50 км 9/3 1500 м
[Cb cap Ac cuf Ci ing]
+20.1 +13.8 67 +23 +25 комфорт 1019.2 977.6
Ю 1 50 км 9/3 1500 м
[Cb cap Ac cuf Ci ing]
+21.1 +13.5 62 +24 +24 комфорт 1019.0 977.6
В 1 {9} 30 км осадки на расстоянии {гроза} 9/9 1500 м
[Cb cap]
+19.9 +13.4 66 +23 +23 комфорт 1019.9 978.3 +13.5 +23.9 0.0
ЮЗ 2 50 км в посл. час ливневой дождь 9/9 1500 м
[Cb cap]
+16.8 +14.1 84 +17 +17 1020.5 978.4
ЮВ 3 35 км зарница 9/9 1500 м
[Cb cap]
+15.4 +14.4 94 +15 +15 1021.1 978.8
С 1 45 км н/о +15.7 +13.9 89 +16 +16 1021.1 978.8
В 1 35 км н/о +15.7 +13.7 88 +16 +16 1020.9 978.6
З 1 26 км н/о +13.9 +12.9 94 +14 +14 1021.0 978.5
ЮВ 1 19 км н/о +12.8 +12.2 96 +13 +13 1021.1 978.4 0.0
ЮЗ 2 11 км дымка н/о +11.6 +11.3 98 +10 +10 1021.2 978.3
штиль 0 11 км н/о +11.0 +10.7 98 +10 +10 1021.2 978.2
З 1 5000 м дымка н/о +10.4 +10.1 98 +10 +10 1021.3 978.2
ЮЗ 1 14 км н/о +10.5 +10.3 99 +10 +10 1021.3 978.3
Ю 1 35 км 6/0
[Ac trans Cs]
+12.9 +12.3 96 +13 +15 1021.1 978.4
Ю 1 50 км 4/0
[Ac lent Cs]
+15.4 +12.0 80 +16 +21 1020.7 978.4 +10.0 +19.9 0.0 0.0
В 1 45 км 8/1 1000 м
[Cu med, cong Ac trans Cs]
+18.8 +12.5 67 +21 +26 комфорт 1020.1 978.3
ЮВ 3 45 км 9/3 1500 м
[Cu med, cong Cs]
+20.9 +14.3 66 +24 +30 комфорт 1019.4 977.9
Ю 6-11 {11} 45 км осадки на расстоянии 9/4 1500 м
[Cb cap Cs]
+22.7 +12.6 53 +25 +28 комфорт 1018.8 977.6
Ю 6 45 км 6/4 1000 м
[Cb cap Ci fib]
+23.2 +11.6 48 +26 +29 жарко 1018.4 977.3
Ю 6 45 км осадки на расстоянии 8/6 1500 м
[Cb cap Ci fib]
+23.7 +11.7 47 +25 +28 комфорт 1017.9 976.9
Ю 6 {12} 45 км гроза без осадков туман 8/8 1500 м
[Cb cap]
+23.2 +12.2 50 +26 +27 жарко 1017.7 976.6
Ю 4 {11} 45 км слаб. ливневой дождь, в посл. час гроза 9/9 1000 м
[Cb cap]
+19.8 +12.1 61 +21 +22 комфорт 1018.1 976.5
Ю 6 45 км в посл. час ливневой дождь 9/6 1500 м
[Cb cap Ac cuf Cs]
+21.2 +12.9 59 +23 +25 комфорт 1017.6 976.2
Ю 5 {11} 45 км слаб. ливневой дождь {гроза} 9/9 1000 м
[Cb cap]
+19.9 +11.6 59 +21 +22 комфорт 1017.1 975.6
Ю 4 50 км в посл. час ливневой дождь 9/6 1000 м
[Cb cap Ac As]
+18.8 +11.1 61 +19 +20 1017.0 975.3
ЮВ 2 50 км осадки на расстоянии 9/4 1000 м
[Cb cap Ac As Cs]
+17.8 +13.7 77 +18 +19 1017.3 975.5
СЗ 2 {11} 50 км осадки на расстоянии {гроза, ливн. дождь} 9/3 1000 м
[Sc Ac As Cs]
+17.9 +13.2 74 +18 +19 1017.4 975.6 +15.4 +24.1 0.0
С 1 50 км 9/0
[Ac trans Cs]
+16.9 +11.4 70 +18 +18 1017.1 975.2
З 2 45 км 9/0
[Ac trans Cs]
+14.7 +12.0 84 +14 +14 1017.8 975.5
Ю 2 24 км н/о +13.5 +12.1 91 +13 +13 1017.9 975.4
Ю 1 23 км н/о +13.4 +12.5 94 +13 +13 1017.9 975.4
штиль 0 12 км н/о +13.0 +12.1 94 +12 +12 1017.6 975.1
ЮЗ 1 100 м туман н/о +11.7 +11.5 99 +11 +11 1017.6 974.9
штиль 0 200 м туман н/о +10.9 +10.7 99 +10 +10 1017.5 974.7
Ю 1 2000 м в посл. час туман н/о +10.7 +10.5 99 +10 +10 1017.1 974.3
З 1 300 м туман н/о +9.7 +9.6 99 +9 +9 1017.2 974.2
штиль 0 4200 м в посл. час туман н/о +10.1 +9.9 99 +9 +9 1017.0 974.1
штиль 0 12 км туман на расстоянии 5/1 100 м
[St Ac trans Cs]
+12.5 +12.5 100 +12 +14 1016.5 974.0
штиль 0 35 км 5/0
[Ac trans Cs]
+13.9 +12.8 93 +13 +19 1016.3 974.0 +9.0 +18.1 0.0
В 1 45 км 5/0
[Ac cast Cs]
+16.6 +11.5 72 +17 +25 1015.9 974.0
Ю 5 45 км 5/1 1000 м
[Cu med, cong Ac cast Cs]
+19.9 +12.4 62 +21 +26 комфорт 1015.4 974.0
Ю 5 50 км 4/1 1000 м
[Cu med, cong Ac trans Cs]
+22.4 +12.1 52 +25 +31 комфорт 1015.0 973.9
Ю 6 50 км 4/3 1000 м
[Cu med, cong Ci sp]
+23.1 +10.8 46 +25 +30 комфорт 1014.8 973.8
Ю 5 45 км 6/5 1000 м
[Cb cap Ci sp]
+23.7 +12.0 48 +25 +30 комфорт 1014.3 973.4
Ю 7 17 км осадки на расстоянии 8/6 1000 м
[Cb cap Ci sp]
+24.1 +11.1 44 +25 +27 комфорт 1013.4 972.6
З 5 {12} 17 км гроза без осадков 8/6 1000 м
[Cb cap Ac cuf Ci ing]
+19.0 +12.0 64 +20 +22 1014.7 973.2
ЮЗ 3 15 км гроза, ливневой дождь 8/6 600 м
[Cb cap Ac cuf]
+18.2 +11.3 64 +19 +21 1016.3 974.6
СЗ 2 {12} 15 км слаб. ливневой дождь, в посл. час гроза 9/8 300 м
[Cb cap Ac cuf]
+15.2 +11.4 78 +15 +16 1016.9 974.7
СВ 2 20 км в посл. час ливневой дождь 9/9 480 м
[Cb cap]
+14.8 +13.0 89 +14 +15 1017.6 975.3
СЗ 2 30 км 9/9 720 м
[Sc]
+14.9 +12.4 85 +15 +15 1017.7 975.5
Местоположение метеостанции Клодзко (Польша): широта 50.43 долгота 16.62 высота над уровнем моря 357 м.
В архиве по умолчанию представлена погода в Клодзко за последнюю неделю. Архивные данные за месяц целиком и за предыдущие месяцы, начиная с января 2011 года, Вы можете получить, выбрав интересующий диапазон дат из раскрывающегося списка и нажав кнопку "Найти!".
*Определитесь, кто Вы:
Внимание! Время в таблицах - всемирное. Для получения местного времени необходимо прибавить поправку, которая равна 1 ч.
Некоторые строки с данными для отдельных станций могут быть выделены курсивом. Это означает, что фактические данные отсутствуют по различным причинам, а приведенные значения являются расчетными модельными данными для данного пункта наблюдений.
Смотрите также архив погоды в соседних городах и на ближайших метеорологических станциях:
Партнеры нашего сайта:      
Пояснения к столбцам:
  • Ветер - указаны скорость ветра в м/с - средняя за 10 мин, порывы в срок и между сроками (в фигурных скобках) и направление, откуда дует ветер: С - северный,
  • СВ - северо-восточный, В - восточный, ЮВ - юго-восточный, Ю - южный, ЮЗ - юго-западный, З - западный, СЗ - северо-западный.
  • Видимость - горизонтальная дальность видимости в метрах или километрах. При видимости от 1 до 10 км при отсутствии осадков обычно наблюдается дымка, при ухудшении видимости до 1 км и менее - туман. В сухую погоду видимость может ухудшаться дымом, пылью или мглою.
  • Явления - указаны атмосферные явления, наблюдавшиеся в срок или в последний час перед сроком; фигурными скобками обозначены явления, наблюдавшиеся между сроками (за 1-3 часа до срока); квадратными скобками обозначены град или гололедные отложения с указанием их диаметра в мм.
  • Облачность - указаны через наклонную черту общая и нижняя облачность в баллах и высота нижней границы облаков в метрах; квадратными скобками обозначены формы облаков: Ci - перистые, Cs - перисто-слоистые, Cc - перисто-кучевые, Ac - высококучевые, As - высокослоистые, Sc - слоисто-кучевые, Ns - слоисто-дождевые, Cu - кучевые, Cb - кучево-дождевые. Подробнее классификацию облаков см. в Атласе облаков (PDF).
  • T - Температура воздуха - температура, измеренная на высоте 2 м над землей.
  • Td - Температура точки росы - температура, при понижении до которой содержащийся в воздухе водяной пар достигнет насыщения.
  • f - Относительная влажность воздуха - влажноcть воздуха, измеренная на высоте 2 м над землей.
  • Te - Эффективная температура - температура, которую ощущает одетый по сезону человек в тени. Характеристика душности погоды. При расчете учитывается влияние влажности воздуха и скорости ветра на теплоощущения человека.
  • Tes - Эффективная температура на солнце - температура, которую ощущает человек, с поправкой на солнечный нагрев. Характеристика знойности погоды. Зависит от высоты солнца над горизонтом, облачности и скорости ветра. Ночью, в пасмурную погоду, а также при ветре 12 м/с и более поправка равна нулю.
  • P - Атмосферное давление - приведенное к уровню моря атмосферное давление.
  • Po - Атмосферное давление - измеренное на уровне метеостанции атмосферное давление.
  • Tmin - Минимальная температура - минимум температуры воздуха на высоте 2 м над землей.
  • Tmax - Максимальная температура - максимум температуры воздуха на высоте 2 м над землей.
  • R - Количество осадков - Количество выпавших осадков за период времени, мм. При наведении курсора мыши на число - период времени, за который выпало указанное количество осадков.
  • R24 - Количество осадков - Количество выпавших осадков за 24 часа, мм.
  • S - Снежный покров - Высота снежного покрова, см. При наведении курсора мыши на число - состояние снежного покрова и степень покрытия местности в баллах.